Flag for Switzerland Weather past 2 weeks in Ilanz, Graubünden, Switzerland

Now
42 °F

Rain. Overcast.


Feels Like: 42 °F
Forecast: 38 / 50 °F
Wind: 2 mph from Southwest

Location: Chur-Ems

Current Time: Dec 18, 2014 at 4:36:18 PM

Latest Report: Dec 18, 2014 at 4:00 PM


Visibility: 3 mi

Pressure: 30.24 "Hg

Humidity: 93%

Dew point: 40 °F

Location of IlanzLocation

Historic Weather in Ilanz — Graph

°F

Ilanz temperature yesterday

Maximum temperature yesterday: 45 °F (at 2:00 PM)
Minimum temperature yesterday: 37 °F (at 7:00 AM)
Average temperature yesterday: 41 °F

Past Weeks' High & Low Weather Summary

 TemperatureHumidityPressure
High57 °F (Dec 13, 2:00 PM)97% (Dec 16, 8:00 AM)30.49 "Hg (Dec 16, 8:00 AM)
Low27 °F (Dec 10, 8:00 AM)30% (Dec 12, 3:00 PM)29.88 "Hg (Dec 4, 2:00 PM)
Average40 °F76%30.11 "Hg
* Reported Dec 3 3:00 PM — Dec 18 3:00 PM, Ilanz, Weather by CustomWeather, © 2014

Note: Actual official high and low records may vary slightly from our data, if they occured in-between our weather recording intervals... More about our weather records

Advertising

Ilanz weather history for previous 24 hours

 ConditionsComfort  
Time TempWeatherWind HumidityBarometerVisibility
3:00 PM
Dec 18
43 °FQuite cool.3 mph88%30.21 "HgN/A
2:00 PM42 °FQuite cool.5 mph84%30.22 "HgN/A
1:00 PM42 °FFog.6 mph79%30.22 "Hg9 mi
12:00 PM42 °FQuite cool.6 mph79%30.22 "HgN/A
11:00 AM41 °FQuite cool.6 mph79%30.22 "HgN/A
10:00 AM40 °FOvercast.5 mph83%30.21 "Hg11 mi
9:00 AM37 °FChilly.5 mph87%30.22 "HgN/A
8:00 AM36 °FChilly.3 mph89%30.20 "HgN/A
7:00 AM36 °FPassing clouds.2 mph90%30.19 "Hg11 mi
6:00 AM36 °FChilly.7 mph89%30.19 "HgN/A
5:00 AM35 °FChilly.6 mph92%30.18 "HgN/A
3:00 AM37 °FChilly.3 mph93%30.18 "HgN/A
2:00 AM37 °FChilly.3 mph94%30.16 "HgN/A
1:00 AM38 °FChilly.5 mph92%30.14 "HgN/A
12:00 AM38 °FChilly.3 mph93%30.13 "HgN/A
11:00 PM
Dec 17
38 °FChilly.3 mph91%30.11 "HgN/A
10:00 PM39 °FLight rain. Overcast.1 mph93%30.09 "Hg3 mi
9:00 PM39 °FChilly.2 mph95%30.07 "HgN/A
8:00 PM40 °FChilly.1 mph94%30.05 "HgN/A
7:00 PM40 °FRain. Overcast.1 mph89%30.02 "Hg3 mi
6:00 PM41 °FQuite cool.7 mph85%29.98 "HgN/A
5:00 PM43 °FQuite cool.7 mph77%29.96 "HgN/A
4:00 PM44 °FOvercast.1 mph70%29.93 "Hg47 mi
Weather by CustomWeather, © 2014

See weather overviewHow to use our weather pages